Tracking 18980 objects as of 18-Feb-2018
HD Live streaming from Space Station
objects crossing your sky now

FENGYUN 1C DEB

Track FENGYUN 1C DEB now!
10-day predictions


NORAD ID: 36199
Int'l Code: 1999-025DTY
Perigee: 742.0 km
Apogee: 880.9 km
Inclination: 98.6 °
Period: 101.0 minutes
Semi major axis: 7182 km
RCS: 0.0122 m2 (small)
Launch date: May 10, 1999
Source: People's Republic of China (PRC)
Launch site: Taiyaun Space Center, China (TSC)

Note: This is SATELLITE DEBRIS
aabbcc
Your satellite tracking list
Your tracking list is empty




NASA's NSSDC Master Catalog

Two Line Element Set (TLE):
1 36199U 99025DTY 18048.00325289  .00000148  00000-0  75870-4 0  9997
2 36199  98.6225 123.9338 0096688 172.6285 187.6343 14.26241868532081
Source of the keplerian elements: AFSPC